Regional Weather Roundup
Issued by NWS

Home | Current Version | Previous Version | Graphics & Text | Print | Product List | Glossary On
Versions: 1 2 3 4 5 6 7 8 9 10 11 12 13 14 15 16 17 18 19 20 21 22 23 24 25 26 27 28 29 30 31 32 33 34 35 36 37 38 39 40 41 42 43 44 45 46 47 48 49 50
000
ASUS45 KSLC 011310
RWRUT

UTAH REGIONAL WEATHER ROUNDUP
NATIONAL WEATHER SERVICE SALT LAKE CITY UT
700 AM MDT TUE SEP 01 2015

UTZ001>011-023>025-011400-

NORTHERN UTAH

CITY           SKY/WX    TMP DP  RH WIND       PRES   REMARKS
BRIGHAM CITY   CLEAR     57  41  54 CALM      29.98S
HILL AFB       PTCLDY    65  39  38 E13       30.00S
LOGAN          CLEAR     47  41  80 CALM      30.00S
OGDEN          CLEAR     63  40  42 S9        29.98R
PROVO AIRPORT  MOCLDY    63  45  51 S7        30.04S
SALT LAKE CITY MOCLDY    71  46  40 SE9       29.97R
VERNAL         CLEAR     52  45  77 CALM      30.15R
WENDOVER       PTCLDY    63  39  42 NE6       29.97R
HEBER CITY     PTCLDY    50  43  76 CALM      30.12R
WEST JORDAN    CLEAR     72  46  40 SE21G26   30.00S

$$

UTZ012>022-026-027-011400-

SOUTHERN/CENTRAL UTAH

CITY           SKY/WX    TMP DP  RH WIND       PRES   REMARKS
BLANDING       CLEAR     56  48  74 NE8       30.28R
BRYCE CANYON   MOCLDY    49  45  86 N5        30.31R
CEDAR CITY     CLEAR     64  46  52 SW3       30.13S
DELTA          CLEAR     67  45  44 S10       30.05S
HANKSVILLE     PTCLDY    61  50  67 CALM      30.09S
MILFORD        CLEAR     65  46  50 SW10      30.08R
MOAB/CYNLANDS  CLEAR     62  50  64 CALM      30.08R
PRICE          CLEAR     58  46  64 CALM      30.16R
ST GEORGE      PTSUNNY   79  52  38 E12       29.99R
KANAB          PTCLDY    61  57  88 N7        30.20R

$$

REGIONAL REPORTS     COLORADO/ARIZONA

CITY           SKY/WX    TMP DP  RH WIND       PRES   REMARKS
CRAIG, CO      CLEAR     45  42  89 CALM      30.22R
GRAND JUNCTION PTCLDY    57  51  80 E5        30.13R
RIFLE          PTCLDY    53  48  83 CALM      30.21R
MONTROSE       CLEAR     55  46  71 SE6       30.22R
CORTEZ         CLEAR     53  46  77 NE6       30.23R
PAGE, AZ       PTCLDY    68  54  60 S3        30.10R
GRAND CANYON   CLEAR     51  49  92 NE6         N/A
KINGMAN        CLEAR     73  48  41 VRB5      30.02R
FLAGSTAFF      CLEAR     49  49 100 CALM      30.29S

$$

REGIONAL REPORTS    NEVADA/IDAHO/WYOMING

CITY           SKY/WX    TMP DP  RH WIND       PRES   REMARKS
LAS VEGAS, NV  CLEAR     83  39  21 S7        29.84R
ELY            PTCLDY    54  38  54 S13       30.13S
ELKO           PTCLDY    49  25  39 E7        30.03S
POCATELLO, ID  CLEAR     47  35  63 E3        30.00S
BURLEY         CLEAR     47  40  76 SW5       29.97R
EVANSTON, WY   CLEAR     56  39  53 S6        30.18R
ROCK SPRINGS   CLEAR     53  41  63 S6        30.18R
KEMMERER       PTCLDY    43  32  65 N10       30.19S

$$


USA.gov is the U.S. government's official web portal to all federal, state and local government web resources and services.